FENGYUN 1C DEB, 31565

Orbit data source: Space-Track

FENGYUN 1C DEB, 31565 is space debris in SSO originally from a launch on Mon, 10 May 1999 UTC launched from the Taiyaun Space Center, China (TSC). Fengyun 1C debris stems from the Chinese weather satellite Fengyun-1C, which was intentionally destroyed by a Chinese anti-satellite missile in 2007. This event dramatically increased the amount of space debris, with thousands of trackable fragments posing hazards to satellites and human spaceflight. The Fengyun 1C debris cloud has become a focal point in discussions about space sustainability and the need for international regulations to prevent the creation of new debris.

Loading next visibility...
Identifier
31565, 1999-025BZG
Orbit
SSO
Country
Flag of CNCN / PRC
Related business
Manufacturer
Unknown
Mission
Spacecraft
Bus & Motor
Unknown
Mass
Unknown
Launch date (UTC)
1999-05-10 (26 years ago)
Launch vehicle
Unknown
Launch site
Taiyaun Space Center, China (TSC)
Object type
Payload
Rocket body
Debris
Shape & HBR
Unknown shape, 0.1 m
Radar Cross Section
Small (<0.1 m²)

Expand to show TLE details & history
Last TLE update: 3 days ago

TLE from 3 days ago
0 FENGYUN 1C DEB
1 31565U 99025BZG 25306.87476335  .00008195  00000-0  26916-2 0  9993
2 31565 100.7169 169.1982 0052540 133.2888 227.2691 14.37846356637801
Epoch: 2025-11-02T20:59Z
TLE epoch observation values (Epoch: 2025-11-02T20:59:39.553Z)
Latitude
-0.00006°
Longitude
171.89918°
Altitude
794.069 km
Speed
7.443 km/s
True Right ascension
11h 16m 47s
True Declination
0° 00' 00"
Sunlit
Object was in daylight at epoch
Visualization orbit readout
Latitude
Unknown
Longitude
Unknown
Altitude
Unknown
Speed
Unknown
Apparent Right ascension
Unknown
Apparent Declination
Unknown
Sunlit
N/A
Visualization observer readout
Local Sidereal Time
09:40:16
Azimuth
Unknown
Elevation
Unknown
Doppler factor
Unknown
Orbital elements
Apogee altitude
800.384 km
Perigee altitude
725.346 km
Semi-major axis
7,141.002 km
Eccentricity
0.00525
Inclination
100.7169°
RAAN
169.1982°
Arg. of periapsis
133.2888°
True anomaly
226.82882°
Mean anomaly
227.2691°
Eccentric anomaly
227.04876°
Mean motion
3.5967 °/min
Orbital period
100.09 mins
BSTAR
0.0026916
Loading maneuver chart data...
Computing Atmospheric mass density...

Documentation

Showing up to 5 results
|